Tracking 19476 objects as of 18-Jan-2019
HD Live streaming from Space Station
objects crossing your sky now

AEROCUBE 7C

Track AEROCUBE 7C now!
10-day predictions


NORAD ID: 43043
Int'l Code: 2017-071G
Perigee: 449.5 km
Apogee: 455.9 km
Inclination: 51.6 °
Period: 93.5 minutes
Semi major axis: 6823 km
RCS: Unknown
Launch date: November 12, 2017
Source: United States (US)
Launch site: WALLOPS ISLAND (WLPIS)
aabbcc
Your satellite tracking list
Your tracking list is empty




NASA's NSSDC Master Catalog

Two Line Element Set (TLE):
1 43043U 17071G   19017.72362533  .00001863  00000-0  55601-4 0  9998
2 43043  51.6396  75.3384 0004717 331.4605  28.6121 15.40179006 62626
Source of the keplerian elements: AFSPC